QPF
0.00 0.00 0.00 0.00 0.00 0.00 0.00 0.00 0.00 0.00 0.00 0.00 0.00 0.00 0.00 0.00 0.00 0.00 0.00 0.00 0.00 0.00 0.01 0.03 0.03 0.02 0.02 0.02 0.02 0.02 0.02 0.02 0.02 0.02 0.01 0.01 0.01 0.00 0.01 0.02 0.01 0.01 0.01 0.01 0.02 0.01 0.01 0.01 0.01
0.00 0.00 0.00 0.00 0.00 0.00 0.00 0.00 0.00 0.00 0.00 0.00 0.00 0.00 0.00 0.00 0.00 0.00 0.00 0.00 0.00 0.01 0.02 0.03 0.04 0.04 0.03 0.03 0.03 0.02 0.02 0.02 0.02 0.02 0.02 0.02 0.01 0.01 0.02 0.01 0.01 0.01 0.01 0.02 0.02 0.01 0.01 0.00 0.00
0.00 0.00 0.00 0.00 0.00 0.00 0.00 0.00 0.00 0.00 0.00 0.00 0.00 0.00 0.00 0.00 0.00 0.00 0.00 0.00 0.00 0.01 0.02 0.04 0.05 0.05 0.06 0.04 0.03 0.02 0.02 0.03 0.03 0.03 0.02 0.02 0.02 0.02 0.02 0.02 0.02 0.02 0.02 0.03 0.01 0.01 0.00 0.00 0.00
0.00 0.00 0.00 0.00 0.00 0.00 0.00 0.00 0.00 0.00 0.00 0.00 0.00 0.00 0.00 0.00 0.00 0.00 0.00 0.00 0.00 0.01 0.02 0.04 0.06 0.06 0.08 0.08 0.06 0.05 0.04 0.04 0.04 0.03 0.02 0.02 0.03 0.03 0.04 0.04 0.03 0.02 0.02 0.03 0.01 0.00 0.00 0.00 0.00
0.00 0.00 0.00 0.00 0.00 0.00 0.00 0.00 0.00 0.00 0.00 0.00 0.00 0.00 0.00 0.00 0.00 0.00 0.00 0.00 0.01 0.01 0.02 0.04 0.06 0.08 0.10 0.12 0.12 0.09 0.07 0.06 0.05 0.04 0.03 0.03 0.03 0.04 0.05 0.04 0.02 0.02 0.02 0.02 0.00 0.00 0.00 0.00 0.00
0.00 0.00 0.00 0.00 0.00 0.00 0.00 0.00 0.00 0.00 0.00 0.00 0.00 0.00 0.00 0.00 0.00 0.00 0.00 0.00 0.01 0.01 0.02 0.04 0.06 0.08 0.09 0.12 0.13 0.13 0.11 0.09 0.08 0.07 0.06 0.06 0.05 0.04 0.04 0.03 0.03 0.02 0.02 0.01 0.00 0.00 0.00 0.00 0.00
0.00 0.00 0.00 0.00 0.00 0.00 0.00 0.00 0.00 0.00 0.00 0.00 0.00 0.00 0.00 0.00 0.00 0.00 0.00 0.01 0.02 0.02 0.03 0.04 0.05 0.07 0.09 0.09 0.10 0.11 0.14 0.12 0.10 0.10 0.08 0.08 0.08 0.06 0.05 0.03 0.03 0.03 0.02 0.02 0.00 0.00 0.00 0.00 0.00
0.00 0.00 0.00 0.00 0.00 0.00 0.00 0.00 0.00 0.00 0.00 0.00 0.00 0.00 0.00 0.02 0.02 0.01 0.01 0.01 0.01 0.02 0.04 0.04 0.05 0.05 0.07 0.09 0.09 0.10 0.12 0.13 0.13 0.11 0.08 0.06 0.06 0.06 0.06 0.03 0.03 0.03 0.02 0.02 0.01 0.00 0.00 0.00 0.00
0.00 0.00 0.00 0.00 0.00 0.00 0.00 0.00 0.00 0.00 0.00 0.00 0.00 0.00 0.00 0.03 0.05 0.03 0.02 0.02 0.02 0.02 0.03 0.04 0.06 0.07 0.06 0.06 0.08 0.10 0.11 0.11 0.12 0.11 0.07 0.06 0.08 0.07 0.07 0.04 0.04 0.03 0.02 0.01 0.01 0.00 0.00 0.00 0.00
0.00 0.00 0.00 0.00 0.00 0.00 0.00 0.00 0.00 0.00 0.00 0.00 0.00 0.00 0.00 0.03 0.06 0.05 0.03 0.02 0.02 0.02 0.03 0.04 0.06 0.06 0.06 0.05 0.06 0.09 0.10 0.11 0.09 0.08 0.07 0.06 0.07 0.08 0.06 0.04 0.03 0.04 0.03 0.02 0.01 0.01 0.00 0.00 0.00
0.00 0.00 0.00 0.00 0.00 0.00 0.00 0.00 0.00 0.00 0.00 0.00 0.00 0.00 0.00 0.03 0.09 0.07 0.05 0.03 0.02 0.02 0.03 0.03 0.04 0.05 0.04 0.05 0.05 0.07 0.09 0.10 0.10 0.07 0.07 0.07 0.07 0.07 0.07 0.05 0.05 0.05 0.03 0.02 0.01 0.01 0.00 0.00 0.00
0.00 0.00 0.00 0.00 0.00 0.00 0.00 0.00 0.00 0.00 0.00 0.00 0.00 0.00 0.00 0.02 0.08 0.12 0.07 0.05 0.03 0.03 0.03 0.04 0.04 0.05 0.04 0.03 0.03 0.05 0.07 0.09 0.09 0.06 0.05 0.06 0.06 0.06 0.05 0.05 0.05 0.05 0.04 0.02 0.01 0.01 0.00 0.00 0.00
0.00 0.00 0.00 0.00 0.00 0.00 0.00 0.00 0.00 0.00 0.00 0.00 0.00 0.00 0.00 0.01 0.03 0.09 0.10 0.06 0.04 0.03 0.03 0.04 0.05 0.04 0.04 0.04 0.04 0.03 0.05 0.07 0.08 0.07 0.05 0.04 0.04 0.04 0.04 0.04 0.04 0.03 0.03 0.03 0.01 0.01 0.00 0.00 0.00
0.00 0.00 0.00 0.00 0.00 0.00 0.00 0.00 0.00 0.00 0.00 0.00 0.00 0.00 0.00 0.01 0.02 0.05 0.10 0.08 0.04 0.02 0.02 0.02 0.04 0.05 0.05 0.05 0.05 0.04 0.05 0.07 0.08 0.08 0.06 0.04 0.04 0.03 0.03 0.04 0.04 0.03 0.03 0.02 0.01 0.01 0.01 0.00 0.00
0.00 0.00 0.00 0.00 0.00 0.00 0.00 0.00 0.00 0.00 0.00 0.00 0.00 0.00 0.01 0.01 0.02 0.06 0.09 0.10 0.06 0.03 0.02 0.02 0.03 0.05 0.06 0.06 0.06 0.06 0.07 0.07 0.07 0.07 0.07 0.05 0.05 0.05 0.03 0.03 0.03 0.03 0.03 0.03 0.02 0.02 0.01 0.01 0.00
0.00 0.00 0.00 0.00 0.00 0.00 0.00 0.00 0.00 0.00 0.00 0.00 0.00 0.01 0.01 0.02 0.02 0.04 0.07 0.08 0.06 0.03 0.03 0.03 0.04 0.04 0.04 0.06 0.07 0.06 0.07 0.08 0.07 0.07 0.07 0.07 0.06 0.06 0.06 0.05 0.04 0.04 0.04 0.04 0.03 0.01 0.01 0.01 0.00
0.00 0.00 0.00 0.00 0.00 0.00 0.00 0.00 0.00 0.00 0.00 0.01 0.00 0.01 0.02 0.02 0.02 0.02 0.04 0.04 0.04 0.03 0.03 0.03 0.04 0.04 0.03 0.04 0.06 0.06 0.07 0.09 0.09 0.08 0.08 0.08 0.07 0.07 0.06 0.06 0.06 0.07 0.06 0.04 0.04 0.02 0.01 0.01 0.00
0.00 0.00 0.00 0.00 0.01 0.01 0.01 0.00 0.01 0.01 0.01 0.01 0.02 0.02 0.04 0.01 0.02 0.02 0.03 0.03 0.03 0.03 0.03 0.03 0.03 0.04 0.04 0.04 0.05 0.05 0.07 0.10 0.11 0.11 0.09 0.08 0.08 0.08 0.07 0.06 0.06 0.07 0.07 0.06 0.04 0.03 0.02 0.01 0.01
0.01 0.01 0.01 0.01 0.01 0.01 0.01 0.01 0.02 0.02 0.01 0.01 0.02 0.03 0.03 0.02 0.01 0.02 0.02 0.01 0.01 0.02 0.03 0.03 0.04 0.04 0.04 0.04 0.05 0.05 0.06 0.11 0.13 0.12 0.10 0.09 0.08 0.08 0.08 0.07 0.07 0.07 0.07 0.06 0.05 0.05 0.04 0.02 0.01
0.01 0.01 0.01 0.01 0.01 0.02 0.02 0.02 0.01 0.01 0.01 0.02 0.03 0.03 0.02 0.02 0.01 0.02 0.02 0.02 0.02 0.02 0.03 0.03 0.04 0.04 0.03 0.05 0.06 0.05 0.06 0.10 0.14 0.14 0.13 0.11 0.10 0.09 0.09 0.07 0.06 0.07 0.07 0.06 0.06 0.06 0.05 0.04 0.02
0.01 0.01 0.01 0.01 0.02 0.02 0.02 0.02 0.02 0.01 0.01 0.02 0.03 0.03 0.02 0.02 0.02 0.03 0.03 0.04 0.04 0.04 0.05 0.05 0.04 0.05 0.04 0.06 0.08 0.07 0.07 0.09 0.14 0.16 0.15 0.12 0.12 0.11 0.10 0.09 0.07 0.07 0.08 0.08 0.08 0.07 0.06 0.05 0.03
0.02 0.01 0.01 0.02 0.04 0.05 0.03 0.04 0.03 0.03 0.03 0.04 0.05 0.04 0.04 0.05 0.04 0.04 0.05 0.06 0.08 0.08 0.09 0.09 0.07 0.06 0.06 0.07 0.09 0.08 0.09 0.11 0.12 0.15 0.15 0.13 0.12 0.12 0.13 0.13 0.12 0.10 0.09 0.09 0.09 0.09 0.09 0.08 0.07
0.02 0.02 0.03 0.03 0.05 0.05 0.03 0.05 0.05 0.04 0.05 0.06 0.08 0.08 0.09 0.09 0.08 0.07 0.07 0.09 0.09 0.10 0.12 0.10 0.07 0.06 0.05 0.05 0.07 0.09 0.09 0.12 0.13 0.13 0.17 0.16 0.16 0.14 0.13 0.11 0.12 0.13 0.13 0.11 0.10 0.10 0.11 0.11 0.08
0.03 0.04 0.03 0.03 0.04 0.05 0.03 0.05 0.06 0.07 0.09 0.08 0.09 0.09 0.10 0.11 0.10 0.10 0.09 0.10 0.09 0.10 0.12 0.13 0.09 0.08 0.08 0.07 0.07 0.11 0.14 0.14 0.13 0.13 0.16 0.17 0.18 0.18 0.16 0.13 0.12 0.12 0.12 0.11 0.10 0.10 0.10 0.10 0.08
0.03 0.04 0.04 0.03 0.03 0.04 0.03 0.05 0.08 0.08 0.09 0.09 0.10 0.11 0.13 0.13 0.12 0.12 0.12 0.14 0.12 0.10 0.13 0.15 0.11 0.11 0.12 0.10 0.09 0.13 0.16 0.15 0.13 0.12 0.13 0.14 0.14 0.13 0.13 0.13 0.13 0.11 0.09 0.08 0.08 0.08 0.07 0.07 0.08
0.02 0.03 0.03 0.03 0.02 0.02 0.03 0.05 0.08 0.08 0.09 0.09 0.09 0.11 0.12 0.13 0.12 0.12 0.13 0.14 0.13 0.12 0.13 0.13 0.13 0.14 0.13 0.10 0.10 0.12 0.12 0.12 0.12 0.11 0.11 0.11 0.10 0.10 0.10 0.09 0.10 0.11 0.09 0.08 0.08 0.07 0.06 0.07 0.07
0.01 0.02 0.02 0.02 0.01 0.02 0.03 0.04 0.06 0.06 0.07 0.08 0.07 0.07 0.08 0.08 0.09 0.11 0.12 0.12 0.12 0.13 0.14 0.14 0.13 0.13 0.11 0.10 0.09 0.09 0.08 0.08 0.10 0.09 0.08 0.08 0.07 0.06 0.07 0.08 0.07 0.08 0.09 0.09 0.09 0.08 0.06 0.05 0.05
0.01 0.01 0.02 0.02 0.01 0.02 0.02 0.03 0.05 0.05 0.06 0.07 0.06 0.06 0.06 0.06 0.06 0.08 0.09 0.10 0.10 0.10 0.11 0.11 0.11 0.11 0.12 0.10 0.08 0.08 0.08 0.07 0.07 0.08 0.06 0.05 0.05 0.05 0.05 0.05 0.05 0.06 0.07 0.08 0.08 0.09 0.08 0.07 0.05
0.02 0.01 0.01 0.01 0.01 0.01 0.02 0.03 0.05 0.05 0.05 0.04 0.04 0.05 0.05 0.06 0.07 0.08 0.09 0.10 0.09 0.08 0.07 0.08 0.10 0.10 0.10 0.08 0.07 0.06 0.06 0.05 0.05 0.06 0.05 0.04 0.04 0.04 0.04 0.04 0.04 0.04 0.05 0.06 0.06 0.07 0.07 0.08 0.07
0.02 0.02 0.01 0.01 0.01 0.01 0.02 0.03 0.04 0.03 0.03 0.03 0.03 0.03 0.03 0.05 0.07 0.09 0.09 0.09 0.09 0.10 0.09 0.08 0.09 0.08 0.07 0.08 0.10 0.10 0.07 0.06 0.06 0.08 0.08 0.06 0.05 0.05 0.04 0.04 0.05 0.05 0.05 0.05 0.05 0.06 0.06 0.07 0.07
MSLP
1014.98 1014.99 1015.07 1015.17 1015.28 1015.37 1015.41 1015.41 1015.37 1015.31 1015.26 1015.22 1015.20 1015.18 1015.14 1015.04 1014.84 1014.54 1014.16 1013.72 1013.30 1012.95 1012.73 1012.67 1012.78 1013.03 1013.35 1013.70 1014.02 1014.29 1014.49 1014.64 1014.77 1014.92 1015.09 1015.29 1015.51 1015.73 1015.92 1016.06 1016.17 1016.25 1016.33 1016.44 1016.59 1016.78 1016.99 1017.19 1017.34
1015.10 1015.13 1015.22 1015.35 1015.48 1015.59 1015.64 1015.64 1015.58 1015.48 1015.39 1015.30 1015.24 1015.20 1015.15 1015.05 1014.87 1014.59 1014.23 1013.81 1013.39 1013.04 1012.80 1012.73 1012.82 1013.06 1013.39 1013.76 1014.12 1014.43 1014.67 1014.86 1015.01 1015.16 1015.31 1015.49 1015.68 1015.86 1016.02 1016.16 1016.27 1016.38 1016.50 1016.66 1016.85 1017.08 1017.32 1017.54 1017.70
1015.21 1015.26 1015.37 1015.52 1015.68 1015.81 1015.88 1015.89 1015.82 1015.70 1015.57 1015.44 1015.34 1015.26 1015.18 1015.07 1014.90 1014.63 1014.28 1013.87 1013.45 1013.09 1012.83 1012.73 1012.80 1013.02 1013.34 1013.73 1014.11 1014.46 1014.74 1014.97 1015.15 1015.31 1015.47 1015.63 1015.79 1015.96 1016.11 1016.26 1016.39 1016.53 1016.70 1016.90 1017.14 1017.40 1017.66 1017.89 1018.05
1015.32 1015.39 1015.52 1015.70 1015.88 1016.04 1016.14 1016.15 1016.09 1015.96 1015.80 1015.64 1015.50 1015.37 1015.26 1015.13 1014.94 1014.68 1014.33 1013.93 1013.52 1013.14 1012.86 1012.73 1012.76 1012.94 1013.25 1013.62 1014.02 1014.39 1014.71 1014.97 1015.18 1015.36 1015.53 1015.69 1015.86 1016.03 1016.19 1016.36 1016.52 1016.71 1016.92 1017.16 1017.44 1017.73 1018.00 1018.22 1018.38
1015.45 1015.53 1015.69 1015.90 1016.11 1016.30 1016.42 1016.45 1016.40 1016.26 1016.08 1015.88 1015.69 1015.53 1015.38 1015.22 1015.02 1014.76 1014.42 1014.03 1013.62 1013.24 1012.94 1012.77 1012.76 1012.90 1013.16 1013.50 1013.88 1014.25 1014.59 1014.88 1015.12 1015.32 1015.51 1015.69 1015.87 1016.06 1016.25 1016.45 1016.66 1016.89 1017.14 1017.42 1017.73 1018.03 1018.30 1018.52 1018.66
1015.61 1015.74 1015.92 1016.15 1016.39 1016.60 1016.74 1016.79 1016.73 1016.59 1016.38 1016.15 1015.92 1015.72 1015.53 1015.35 1015.14 1014.88 1014.56 1014.19 1013.79 1013.41 1013.10 1012.90 1012.84 1012.92 1013.12 1013.41 1013.76 1014.11 1014.44 1014.74 1014.99 1015.22 1015.43 1015.64 1015.85 1016.06 1016.29 1016.52 1016.77 1017.05 1017.34 1017.65 1017.96 1018.27 1018.53 1018.73 1018.86
1015.86 1016.03 1016.25 1016.51 1016.77 1016.99 1017.13 1017.17 1017.10 1016.93 1016.70 1016.43 1016.16 1015.92 1015.70 1015.50 1015.29 1015.05 1014.75 1014.41 1014.04 1013.67 1013.35 1013.12 1013.01 1013.03 1013.16 1013.39 1013.68 1013.99 1014.30 1014.58 1014.85 1015.09 1015.32 1015.55 1015.78 1016.03 1016.28 1016.55 1016.84 1017.15 1017.47 1017.79 1018.11 1018.41 1018.66 1018.85 1018.95
1016.20 1016.43 1016.69 1016.98 1017.24 1017.45 1017.58 1017.59 1017.49 1017.28 1017.01 1016.70 1016.39 1016.11 1015.87 1015.66 1015.45 1015.23 1014.96 1014.66 1014.32 1013.97 1013.66 1013.40 1013.25 1013.21 1013.27 1013.42 1013.64 1013.90 1014.17 1014.43 1014.69 1014.93 1015.18 1015.42 1015.67 1015.94 1016.22 1016.52 1016.84 1017.17 1017.51 1017.84 1018.16 1018.45 1018.68 1018.85 1018.94
1016.63 1016.93 1017.23 1017.53 1017.79 1017.97 1018.05 1018.02 1017.86 1017.60 1017.28 1016.92 1016.58 1016.27 1016.01 1015.79 1015.59 1015.39 1015.15 1014.88 1014.58 1014.26 1013.95 1013.69 1013.50 1013.40 1013.39 1013.47 1013.62 1013.81 1014.03 1014.26 1014.50 1014.74 1014.99 1015.24 1015.51 1015.80 1016.10 1016.42 1016.76 1017.10 1017.45 1017.79 1018.11 1018.39 1018.61 1018.76 1018.85
1017.13 1017.48 1017.82 1018.12 1018.35 1018.48 1018.50 1018.39 1018.17 1017.84 1017.46 1017.06 1016.68 1016.34 1016.06 1015.84 1015.65 1015.46 1015.26 1015.02 1014.75 1014.45 1014.16 1013.88 1013.66 1013.52 1013.45 1013.45 1013.53 1013.66 1013.83 1014.03 1014.25 1014.48 1014.73 1014.99 1015.28 1015.58 1015.90 1016.24 1016.59 1016.96 1017.32 1017.67 1017.98 1018.26 1018.47 1018.61 1018.69
1017.63 1018.03 1018.38 1018.66 1018.84 1018.91 1018.84 1018.65 1018.34 1017.95 1017.50 1017.06 1016.65 1016.29 1016.00 1015.76 1015.57 1015.40 1015.21 1015.00 1014.75 1014.48 1014.19 1013.92 1013.68 1013.49 1013.37 1013.32 1013.33 1013.41 1013.53 1013.70 1013.90 1014.13 1014.38 1014.66 1014.95 1015.28 1015.62 1015.98 1016.36 1016.74 1017.13 1017.49 1017.82 1018.09 1018.30 1018.44 1018.51
1018.07 1018.50 1018.84 1019.08 1019.19 1019.17 1019.00 1018.72 1018.33 1017.86 1017.37 1016.89 1016.45 1016.07 1015.76 1015.52 1015.32 1015.15 1014.97 1014.77 1014.54 1014.28 1014.01 1013.73 1013.48 1013.27 1013.12 1013.02 1012.99 1013.02 1013.11 1013.25 1013.44 1013.67 1013.93 1014.22 1014.55 1014.90 1015.27 1015.67 1016.08 1016.50 1016.91 1017.29 1017.64 1017.93 1018.14 1018.27 1018.33
1018.41 1018.83 1019.13 1019.30 1019.32 1019.20 1018.94 1018.56 1018.09 1017.57 1017.04 1016.53 1016.07 1015.68 1015.35 1015.09 1014.87 1014.68 1014.49 1014.29 1014.07 1013.83 1013.57 1013.32 1013.08 1012.86 1012.69 1012.58 1012.51 1012.52 1012.58 1012.70 1012.89 1013.12 1013.40 1013.72 1014.08 1014.47 1014.88 1015.32 1015.77 1016.23 1016.68 1017.10 1017.47 1017.78 1018.00 1018.13 1018.18
1018.62 1018.98 1019.21 1019.29 1019.21 1018.98 1018.62 1018.16 1017.63 1017.08 1016.52 1016.00 1015.53 1015.12 1014.77 1014.47 1014.22 1013.99 1013.78 1013.57 1013.35 1013.14 1012.91 1012.70 1012.49 1012.30 1012.15 1012.03 1011.96 1011.95 1012.00 1012.11 1012.29 1012.53 1012.83 1013.18 1013.58 1014.01 1014.47 1014.96 1015.46 1015.96 1016.45 1016.91 1017.31 1017.64 1017.88 1018.01 1018.06
1018.70 1018.98 1019.10 1019.07 1018.88 1018.55 1018.11 1017.58 1017.02 1016.44 1015.88 1015.35 1014.86 1014.43 1014.04 1013.70 1013.39 1013.12 1012.87 1012.65 1012.44 1012.26 1012.09 1011.93 1011.79 1011.66 1011.55 1011.47 1011.41 1011.40 1011.44 1011.55 1011.72 1011.97 1012.28 1012.66 1013.09 1013.57 1014.08 1014.61 1015.16 1015.70 1016.23 1016.72 1017.15 1017.50 1017.75 1017.90 1017.94
1018.68 1018.85 1018.86 1018.71 1018.41 1017.99 1017.48 1016.91 1016.33 1015.75 1015.19 1014.66 1014.16 1013.69 1013.25 1012.84 1012.46 1012.12 1011.83 1011.59 1011.39 1011.25 1011.16 1011.09 1011.05 1011.01 1010.98 1010.95 1010.94 1010.94 1010.98 1011.08 1011.25 1011.49 1011.81 1012.20 1012.66 1013.17 1013.71 1014.29 1014.87 1015.45 1016.00 1016.51 1016.97 1017.34 1017.60 1017.76 1017.82
1018.60 1018.64 1018.53 1018.27 1017.87 1017.39 1016.83 1016.25 1015.67 1015.10 1014.56 1014.03 1013.50 1012.99 1012.48 1011.98 1011.51 1011.08 1010.73 1010.46 1010.28 1010.20 1010.18 1010.23 1010.31 1010.39 1010.47 1010.52 1010.56 1010.60 1010.65 1010.74 1010.89 1011.12 1011.43 1011.83 1012.29 1012.82 1013.39 1013.98 1014.59 1015.18 1015.75 1016.28 1016.74 1017.12 1017.41 1017.59 1017.66
1018.49 1018.41 1018.19 1017.83 1017.37 1016.84 1016.28 1015.71 1015.15 1014.61 1014.07 1013.54 1012.98 1012.40 1011.80 1011.19 1010.61 1010.09 1009.66 1009.35 1009.18 1009.14 1009.22 1009.39 1009.60 1009.82 1010.02 1010.17 1010.28 1010.35 1010.42 1010.51 1010.64 1010.85 1011.14 1011.52 1011.99 1012.52 1013.10 1013.70 1014.31 1014.91 1015.48 1016.00 1016.46 1016.85 1017.15 1017.36 1017.47
1018.38 1018.20 1017.88 1017.46 1016.97 1016.43 1015.88 1015.34 1014.82 1014.31 1013.80 1013.25 1012.65 1011.99 1011.29 1010.56 1009.84 1009.20 1008.68 1008.32 1008.13 1008.13 1008.29 1008.56 1008.90 1009.26 1009.58 1009.84 1010.02 1010.15 1010.23 1010.32 1010.44 1010.62 1010.90 1011.26 1011.71 1012.24 1012.82 1013.42 1014.03 1014.61 1015.17 1015.68 1016.13 1016.52 1016.84 1017.08 1017.25
1018.26 1018.00 1017.63 1017.18 1016.68 1016.17 1015.66 1015.18 1014.71 1014.25 1013.75 1013.19 1012.54 1011.81 1010.99 1010.13 1009.28 1008.51 1007.88 1007.43 1007.21 1007.21 1007.41 1007.76 1008.20 1008.66 1009.10 1009.45 1009.71 1009.89 1010.01 1010.10 1010.21 1010.39 1010.64 1010.99 1011.43 1011.95 1012.53 1013.13 1013.72 1014.30 1014.84 1015.33 1015.77 1016.16 1016.49 1016.77 1016.98
1018.12 1017.82 1017.44 1016.99 1016.52 1016.06 1015.62 1015.21 1014.81 1014.39 1013.91 1013.35 1012.66 1011.85 1010.94 1009.95 1008.97 1008.06 1007.30 1006.76 1006.46 1006.42 1006.61 1006.99 1007.49 1008.02 1008.53 1008.96 1009.29 1009.52 1009.67 1009.79 1009.91 1010.08 1010.33 1010.68 1011.13 1011.65 1012.22 1012.82 1013.41 1013.97 1014.49 1014.97 1015.39 1015.78 1016.12 1016.42 1016.70
1017.96 1017.65 1017.27 1016.86 1016.45 1016.06 1015.70 1015.37 1015.04 1014.68 1014.24 1013.68 1012.97 1012.11 1011.12 1010.04 1008.94 1007.91 1007.03 1006.36 1005.95 1005.83 1005.96 1006.30 1006.78 1007.33 1007.88 1008.35 1008.73 1009.01 1009.21 1009.36 1009.51 1009.70 1009.97 1010.33 1010.78 1011.31 1011.90 1012.50 1013.09 1013.65 1014.16 1014.61 1015.02 1015.39 1015.74 1016.07 1016.38
1017.77 1017.47 1017.12 1016.77 1016.43 1016.12 1015.84 1015.59 1015.34 1015.04 1014.64 1014.11 1013.41 1012.54 1011.51 1010.38 1009.20 1008.07 1007.07 1006.28 1005.74 1005.49 1005.51 1005.76 1006.18 1006.68 1007.21 1007.70 1008.11 1008.43 1008.67 1008.86 1009.05 1009.28 1009.58 1009.96 1010.44 1010.99 1011.59 1012.20 1012.80 1013.35 1013.84 1014.29 1014.68 1015.03 1015.38 1015.71 1016.05
1017.56 1017.28 1016.98 1016.69 1016.42 1016.19 1015.99 1015.82 1015.64 1015.40 1015.06 1014.58 1013.93 1013.09 1012.08 1010.94 1009.74 1008.55 1007.47 1006.56 1005.89 1005.49 1005.36 1005.47 1005.77 1006.18 1006.66 1007.12 1007.53 1007.87 1008.16 1008.40 1008.63 1008.91 1009.24 1009.66 1010.15 1010.72 1011.33 1011.95 1012.55 1013.10 1013.58 1014.00 1014.38 1014.71 1015.04 1015.37 1015.71
1017.36 1017.11 1016.85 1016.61 1016.41 1016.24 1016.11 1016.00 1015.88 1015.71 1015.44 1015.03 1014.46 1013.70 1012.76 1011.68 1010.51 1009.33 1008.20 1007.22 1006.43 1005.88 1005.58 1005.53 1005.67 1005.97 1006.35 1006.75 1007.15 1007.50 1007.81 1008.10 1008.38 1008.69 1009.05 1009.49 1010.00 1010.57 1011.18 1011.79 1012.38 1012.92 1013.39 1013.79 1014.14 1014.45 1014.75 1015.06 1015.38
1017.18 1016.95 1016.73 1016.54 1016.38 1016.26 1016.17 1016.11 1016.04 1015.92 1015.73 1015.42 1014.95 1014.32 1013.51 1012.55 1011.48 1010.35 1009.25 1008.22 1007.35 1006.68 1006.22 1006.00 1005.99 1006.14 1006.41 1006.74 1007.10 1007.44 1007.77 1008.08 1008.39 1008.73 1009.10 1009.54 1010.04 1010.59 1011.18 1011.77 1012.33 1012.84 1013.29 1013.66 1013.98 1014.27 1014.54 1014.81 1015.11
1017.04 1016.82 1016.62 1016.45 1016.32 1016.22 1016.16 1016.12 1016.08 1016.02 1015.90 1015.69 1015.36 1014.89 1014.26 1013.47 1012.55 1011.55 1010.52 1009.51 1008.61 1007.85 1007.28 1006.91 1006.74 1006.76 1006.91 1007.16 1007.46 1007.79 1008.11 1008.43 1008.75 1009.08 1009.44 1009.86 1010.32 1010.82 1011.36 1011.90 1012.42 1012.89 1013.30 1013.65 1013.95 1014.20 1014.43 1014.67 1014.93
1016.92 1016.70 1016.51 1016.34 1016.21 1016.12 1016.06 1016.02 1016.00 1015.98 1015.94 1015.84 1015.66 1015.36 1014.93 1014.35 1013.64 1012.81 1011.90 1010.98 1010.10 1009.31 1008.66 1008.18 1007.90 1007.80 1007.85 1008.02 1008.26 1008.55 1008.85 1009.15 1009.45 1009.75 1010.08 1010.43 1010.83 1011.26 1011.73 1012.20 1012.66 1013.08 1013.46 1013.77 1014.04 1014.27 1014.47 1014.68 1014.90
1016.78 1016.56 1016.36 1016.18 1016.04 1015.92 1015.84 1015.80 1015.78 1015.80 1015.82 1015.82 1015.78 1015.67 1015.45 1015.11 1014.62 1014.00 1013.27 1012.48 1011.68 1010.91 1010.25 1009.72 1009.36 1009.17 1009.14 1009.23 1009.42 1009.66 1009.92 1010.18 1010.44 1010.70 1010.96 1011.23 1011.54 1011.89 1012.27 1012.66 1013.05 1013.42 1013.76 1014.05 1014.29 1014.50 1014.68 1014.86 1015.04
1016.60 1016.35 1016.13 1015.93 1015.75 1015.61 1015.51 1015.44 1015.43 1015.46 1015.54 1015.64 1015.74 1015.80 1015.78 1015.66 1015.41 1015.02 1014.49 1013.87 1013.19 1012.50 1011.87 1011.34 1010.95 1010.71 1010.62 1010.66 1010.79 1010.98 1011.19 1011.40 1011.61 1011.79 1011.98 1012.17 1012.39 1012.65 1012.93 1013.25 1013.58 1013.90 1014.21 1014.47 1014.70 1014.89 1015.06 1015.21 1015.36
Thickness
5673 5679 5684 5686 5681 5679 5689 5700 5702 5702 5706 5715 5718 5721 5726 5730 5729 5726 5739 5747 5749 5753 5755 5753 5751 5751 5750 5750 5749 5748 5748 5747 5746 5745 5744 5743 5742 5741 5740 5739 5738 5737 5736 5735 5734 5732 5731 5730 5729
5667 5672 5675 5674 5672 5677 5687 5694 5694 5699 5703 5705 5709 5713 5717 5723 5729 5730 5735 5739 5743 5747 5749 5749 5747 5746 5746 5746 5745 5744 5744 5743 5742 5741 5740 5739 5738 5737 5736 5736 5735 5734 5733 5731 5730 5729 5728 5727 5726
5659 5663 5664 5663 5666 5680 5686 5685 5688 5691 5694 5696 5700 5706 5710 5715 5720 5723 5727 5732 5738 5741 5743 5743 5741 5741 5741 5741 5741 5740 5739 5739 5738 5737 5737 5736 5735 5734 5733 5732 5731 5730 5729 5728 5726 5725 5724 5723 5722
5652 5652 5652 5654 5662 5671 5673 5674 5675 5679 5684 5688 5691 5696 5702 5707 5711 5715 5721 5726 5731 5734 5736 5736 5735 5736 5736 5736 5736 5736 5735 5735 5734 5733 5732 5732 5731 5730 5729 5728 5727 5726 5725 5724 5722 5721 5720 5719 5718
5643 5643 5641 5646 5656 5660 5660 5662 5664 5670 5674 5679 5682 5686 5692 5699 5704 5709 5713 5718 5722 5726 5728 5730 5729 5730 5730 5731 5731 5731 5731 5730 5730 5729 5728 5728 5727 5726 5726 5724 5723 5722 5721 5720 5719 5717 5716 5715 5715
5631 5635 5637 5646 5651 5647 5650 5652 5655 5660 5666 5669 5671 5676 5684 5691 5694 5698 5704 5709 5714 5718 5720 5722 5722 5723 5724 5725 5725 5726 5726 5726 5725 5725 5724 5724 5723 5722 5721 5720 5719 5718 5717 5716 5715 5713 5712 5711 5711
5622 5625 5633 5640 5639 5638 5640 5643 5647 5652 5656 5660 5664 5666 5677 5682 5684 5690 5695 5700 5704 5708 5712 5715 5716 5717 5718 5719 5720 5721 5721 5721 5720 5720 5720 5719 5719 5718 5717 5716 5715 5714 5713 5712 5711 5709 5708 5707 5706
5614 5617 5620 5624 5627 5630 5630 5632 5636 5640 5646 5652 5654 5657 5665 5671 5676 5681 5686 5691 5695 5699 5703 5707 5709 5712 5713 5715 5715 5716 5716 5716 5716 5715 5715 5715 5714 5713 5713 5712 5711 5710 5709 5708 5706 5705 5704 5703 5702
5601 5605 5614 5616 5617 5619 5619 5622 5626 5630 5635 5639 5645 5650 5656 5661 5665 5670 5676 5681 5685 5690 5695 5699 5702 5704 5707 5709 5710 5711 5711 5711 5711 5711 5710 5710 5710 5710 5709 5708 5706 5705 5704 5703 5702 5701 5700 5699 5698
5591 5598 5606 5604 5607 5609 5609 5612 5615 5621 5625 5630 5635 5641 5645 5650 5654 5658 5663 5668 5675 5681 5686 5690 5694 5696 5699 5702 5704 5706 5707 5708 5708 5708 5707 5707 5708 5707 5706 5703 5702 5701 5700 5698 5697 5696 5695 5695 5695
5583 5590 5590 5590 5593 5596 5598 5601 5605 5609 5616 5623 5626 5631 5636 5640 5645 5649 5654 5659 5665 5672 5677 5681 5685 5688 5691 5694 5697 5700 5702 5703 5704 5705 5705 5704 5703 5702 5701 5699 5697 5696 5695 5694 5693 5692 5692 5693 5693
5572 5575 5578 5580 5581 5584 5588 5592 5596 5601 5609 5615 5617 5620 5625 5630 5635 5641 5646 5652 5657 5663 5668 5673 5677 5680 5683 5687 5690 5692 5695 5697 5699 5699 5700 5700 5699 5698 5697 5696 5694 5693 5692 5692 5691 5690 5689 5689 5688
5563 5565 5567 5569 5571 5574 5578 5582 5587 5595 5601 5605 5607 5611 5616 5622 5628 5634 5639 5645 5649 5654 5660 5665 5669 5672 5675 5678 5682 5685 5688 5691 5693 5694 5695 5695 5695 5694 5693 5692 5690 5690 5689 5688 5687 5686 5685 5684 5684
5555 5557 5559 5562 5565 5568 5571 5577 5579 5591 5593 5596 5599 5604 5609 5615 5620 5625 5631 5636 5641 5647 5652 5656 5660 5664 5667 5671 5674 5677 5681 5683 5686 5687 5689 5689 5689 5689 5689 5687 5686 5685 5684 5683 5682 5682 5680 5679 5679
5545 5549 5554 5557 5559 5562 5563 5573 5578 5584 5585 5588 5593 5597 5602 5607 5612 5617 5622 5627 5633 5639 5644 5648 5651 5655 5659 5662 5666 5669 5672 5675 5678 5680 5682 5683 5683 5683 5683 5682 5681 5680 5679 5678 5677 5676 5674 5673 5673
5538 5544 5551 5554 5554 5555 5555 5572 5577 5577 5577 5581 5586 5590 5594 5599 5604 5609 5613 5619 5625 5631 5635 5639 5643 5647 5650 5653 5657 5660 5664 5667 5670 5672 5674 5676 5676 5676 5676 5676 5676 5675 5673 5672 5671 5670 5668 5667 5667
5538 5544 5548 5549 5549 5550 5552 5564 5569 5569 5570 5574 5578 5583 5587 5592 5597 5601 5605 5611 5617 5622 5626 5629 5633 5637 5641 5644 5647 5651 5654 5658 5662 5664 5667 5669 5670 5670 5670 5670 5670 5668 5667 5667 5666 5664 5663 5662 5661
5536 5540 5540 5544 5545 5544 5548 5557 5562 5563 5564 5568 5572 5576 5579 5584 5589 5592 5597 5602 5608 5612 5617 5620 5624 5627 5630 5633 5636 5640 5644 5649 5652 5656 5659 5661 5662 5663 5663 5663 5663 5662 5661 5660 5660 5658 5657 5657 5655
5528 5529 5533 5538 5539 5539 5546 5551 5556 5558 5559 5562 5565 5568 5572 5576 5580 5584 5588 5593 5598 5603 5607 5611 5614 5617 5620 5623 5626 5630 5635 5640 5644 5647 5650 5653 5655 5656 5656 5656 5656 5655 5655 5655 5654 5652 5650 5649 5648
5521 5522 5529 5535 5535 5536 5542 5548 5553 5553 5553 5554 5557 5561 5564 5567 5571 5575 5579 5584 5588 5592 5597 5601 5605 5607 5610 5614 5618 5621 5625 5630 5635 5638 5641 5645 5647 5648 5648 5649 5649 5649 5649 5648 5647 5646 5644 5643 5642
5520 5524 5528 5528 5531 5534 5537 5548 5550 5551 5550 5550 5552 5555 5557 5559 5563 5567 5571 5575 5579 5583 5587 5591 5595 5598 5601 5603 5606 5609 5613 5618 5622 5627 5631 5635 5637 5638 5640 5642 5642 5642 5642 5642 5642 5641 5638 5637 5636
5522 5525 5523 5522 5525 5533 5532 5541 5548 5546 5546 5547 5548 5550 5550 5553 5555 5558 5562 5566 5570 5574 5578 5582 5585 5588 5591 5594 5597 5601 5605 5610 5615 5618 5621 5624 5626 5628 5631 5633 5634 5635 5635 5635 5635 5635 5633 5631 5630
5520 5521 5521 5521 5521 5526 5531 5530 5544 5541 5540 5541 5541 5542 5543 5545 5547 5550 5553 5557 5562 5566 5569 5573 5575 5578 5581 5584 5588 5591 5595 5599 5603 5606 5610 5612 5615 5618 5621 5623 5625 5626 5627 5627 5627 5627 5626 5626 5625
5518 5519 5521 5521 5523 5530 5531 5529 5538 5535 5532 5533 5534 5534 5536 5538 5540 5543 5545 5549 5552 5556 5560 5564 5566 5568 5571 5575 5578 5581 5585 5589 5592 5596 5598 5601 5604 5607 5610 5613 5615 5617 5618 5619 5620 5619 5619 5619 5619
5518 5521 5530 5532 5535 5538 5528 5527 5531 5529 5528 5527 5527 5528 5530 5532 5534 5536 5538 5541 5544 5547 5552 5555 5557 5560 5563 5566 5569 5572 5576 5580 5582 5586 5588 5591 5595 5598 5601 5604 5607 5608 5610 5611 5611 5611 5611 5612 5611
5520 5519 5525 5534 5541 5541 5527 5530 5531 5528 5526 5526 5525 5525 5526 5527 5528 5530 5531 5533 5537 5540 5544 5547 5549 5551 5554 5558 5560 5563 5567 5570 5573 5576 5579 5582 5585 5588 5591 5594 5597 5599 5600 5601 5602 5602 5603 5603 5604
5519 5520 5518 5520 5524 5531 5537 5531 5532 5528 5527 5526 5525 5524 5523 5523 5524 5525 5526 5528 5531 5534 5536 5539 5542 5544 5547 5550 5552 5555 5558 5561 5564 5567 5569 5572 5575 5579 5581 5584 5586 5588 5590 5591 5593 5594 5595 5595 5596
5519 5519 5518 5523 5532 5541 5541 5537 5535 5528 5527 5527 5525 5522 5521 5520 5519 5520 5522 5524 5526 5529 5531 5534 5536 5539 5541 5544 5547 5550 5552 5554 5556 5558 5561 5564 5567 5569 5573 5575 5577 5579 5581 5583 5584 5585 5586 5586 5587
5517 5518 5521 5525 5527 5537 5544 5543 5532 5528 5527 5525 5523 5520 5518 5516 5516 5516 5518 5519 5522 5525 5527 5530 5533 5535 5538 5540 5542 5544 5546 5548 5549 5551 5554 5557 5560 5563 5565 5567 5569 5570 5571 5573 5574 5576 5576 5577 5577
5520 5521 5523 5528 5530 5531 5539 5540 5532 5529 5528 5525 5522 5520 5517 5515 5514 5514 5515 5517 5519 5521 5524 5526 5528 5530 5532 5534 5536 5538 5540 5542 5544 5546 5548 5551 5554 5555 5557 5559 5560 5562 5563 5564 5565 5566 5567 5568 5567